Hourly Data Report for July 26, 2021

KITCHENER/WATERLOO
ONTARIO
Current Station Operator: NAVCAN

43°27'39.000" N
80°22'43.000" W
321.60 m
6144239
71368
YKF

Download Data

Hourly Data (July 2021)
Hourly Data Report for July 26, 2021
TIME
LST
Temp Definition
°C
Dew Point Definition
°C
Rel Hum Definition
%
Precip. Amount Definition
mm

Wind Dir Definition
10's deg

Wind Spd Definition
km/h
Visibility Definition
km
Stn Press Definition
kPa
Hmdx Definition


Wind Chill Definition


Weather Definition


00:00 14.5 14.0 97 0.0 35 4 8.1 97.60     Fog
01:00 14.9 14.4 97 0.0 23 4 8.1 97.63     Fog
02:00 14.0 13.7 98 0.0   0 2.0 97.60     Fog
03:00 13.0 12.7 98 0.0   0 1.6 97.60     Fog
04:00 12.4 12.1 98 0.0   0 0.8 97.59     Fog
05:00 13.3 13.0 98 0.0   0 0.6 97.60     Fog
06:00 13.6 13.3 98 0.0   0 2.0 97.62     Fog
07:00 17.3 16.5 95 0.0   0 6.4 97.65     Fog
08:00 20.6 16.5 77 0.0   0 9.7 97.69 26   Haze
09:00 24.2 17.9 68 0.0 LegendMM 5 12.9 97.69 30   LegendNANA
10:00 26.1 17.6 59 0.0 27 8 16.1 97.68 32   LegendNANA
11:00 27.4 15.4 47 0.0 31 15 16.1 97.66 32   LegendNANA
12:00 28.0 14.4 43 0.0 27 9 16.1 97.65 32   LegendNANA
13:00 28.4 14.1 41 0.0 28 17 16.1 97.62 32   LegendNANA
14:00 29.0 13.3 37 0.0 26 17 16.1 97.63 32   LegendNANA
15:00 26.7 14.3 46 0.0 30 13 16.1 97.66 30   LegendNANA
16:00 27.0 14.5 46 0.0 30 17 16.1 97.66 31   LegendNANA
17:00 27.3 14.3 44 0.0 31 13 16.1 97.65 31   LegendNANA
18:00 26.0 12.2 42 0.0 29 18 16.1 97.63 28   LegendNANA
19:00 23.7 13.4 52 0.0 30 11 16.1 97.68 27   LegendNANA
20:00 19.4 14.3 72 0.0 30 9 16.1 97.66     LegendNANA
21:00 16.9 14.1 83 0.0 27 5 16.1 97.76     LegendNANA
22:00 16.3 14.3 88 0.0 30 8 16.1 97.76     LegendNANA
23:00 16.4 14.2 86 0.0 36 4 16.1 97.75     LegendNANA

Notes on Data Quality.

Legend

  • E = Estimated
  • M = Missing
  • NA = Not Available*
  • [empty] = Indicates an unobserved value
Date modified: